Lid_Strength_Index
1 -1 -1 -1 -1 -1 -1 -1 -1 -1 -1 -1 -1 -1 -1 -1 -1 -2 -2 -1 -1 -1 -2 -1 -1 -2 -2 -1 -1 -1 -1 -1 -2 -2 -1 -1 -2 -2 -2 -2 -2 -1 -2
-0 -1 -1 -1 -1 -1 -1 -1 -1 -1 -1 -1 -1 -1 -1 -1 -1 -2 -1 -1 -1 -1 -2 -2 -2 -2 -2 -2 -2 -1 -1 -1 -2 -1 -1 -1 -1 -2 -2 -2 -1 -1 -2
-0 -1 -1 -1 -1 -1 -1 -1 -1 -1 -1 -1 -2 -1 -1 -1 -2 -2 -2 -2 -2 -2 -2 -2 -2 -2 -2 -1 -1 -1 -1 -1 -2 -1 -1 -1 -1 -2 -2 -2 -2 -2 -2
-0 -1 -1 -1 -1 -1 -1 -1 -1 -1 -1 -2 -2 -2 -2 -2 -2 -2 -2 -2 -2 -1 -2 -2 -2 -2 -1 -1 -1 -1 -1 -2 -1 -1 -1 -1 -1 -1 -1 -2 -2 -2 -2
-0 -1 -1 -1 -1 -1 -1 -1 -1 -2 -2 -2 -2 -2 -2 -2 -2 -2 -2 -2 -2 -2 -2 -2 -1 -1 -1 -1 -1 -1 -1 -2 -1 -1 -1 -1 -1 -1 -1 -1 -2 -2 -2
-0 -0 -1 -1 -1 -1 -1 -1 -1 -1 -2 -2 -2 -2 -2 -2 -2 -2 -2 -2 -1 -1 -1 -2 -1 -1 -1 -1 -1 -1 -1 -2 -2 -1 -1 -1 -1 -1 -2 -2 -2 -2 -2
0 -0 -1 -1 -1 -1 -1 -1 -1 -2 -2 -2 -2 -2 -2 -2 -2 -2 -2 -2 -2 -2 -1 -1 -2 -2 -1 -1 -2 -1 -2 -1 -1 -1 -1 -1 -1 -2 -2 -2 -2 -2 -2
0 -0 -1 -0 -1 -1 -1 -1 -1 -1 -2 -2 -2 -2 -2 -1 -1 -1 -1 -2 -2 -2 -2 -2 -2 -2 -1 -2 -2 -1 -1 -1 -1 -1 -1 -1 -1 -2 -2 -2 -1 -2 -2
-0 -0 -0 -1 -1 -0 -1 -1 -1 -1 -1 -1 -1 -1 -1 -1 -1 -1 -2 -1 -1 -2 -2 -1 -2 -2 -2 -1 -1 -1 -1 -1 -1 -1 -1 -1 -1 -2 -2 -2 -1 -2 -2
0 0 -0 -1 -1 -1 -1 -1 -0 -0 0 0 1 2 1 1 1 0 -1 -1 -1 -1 -1 -1 -2 -2 -1 -0 0 0 -0 -0 -1 -1 -1 -1 -2 -2 -2 -2 -2 -1 -2
1 0 -0 -0 -1 -1 1 1 1 1 2 2 3 3 3 3 3 3 3 2 -0 -1 -1 -1 -1 -0 1 1 1 1 1 1 1 0 -1 -1 -2 -2 -2 -2 -2 -1 -2
2 1 0 -0 0 1 1 1 1 2 0 1 1 2 3 5 5 5 5 4 3 1 1 0 1 1 2 4 4 2 3 3 3 2 0 -1 -2 -2 -2 -1 -1 -1 -2
3 2 1 2 1 1 2 3 4 3 3 3 2 2 2 3 4 4 5 5 5 3 3 4 4 6 6 5 6 6 4 4 5 5 2 -1 -2 -2 -2 -1 -1 -1 -1
5 4 2 1 1 0 2 3 4 5 6 7 5 4 2 2 2 3 4 4 3 2 3 6 7 7 8 9 7 9 8 6 6 6 6 2 -0 -2 -2 -2 -1 -1 -2
7 7 5 2 1 2 3 3 3 5 6 7 8 7 4 4 4 5 6 6 5 3 2 6 7 8 9 10 11 11 11 11 10 9 8 5 2 -0 -2 -2 -2 -1 -2
7 7 6 5 5 4 3 5 5 5 7 8 7 8 8 8 7 7 7 7 5 3 3 5 8 9 9 11 11 11 12 12 13 12 11 10 6 3 -0 -2 -2 -2 -1
6 7 6 6 6 6 6 7 6 7 8 7 8 9 9 9 9 10 8 8 6 5 4 5 8 9 9 9 10 10 10 12 12 12 12 11 10 7 3 1 -1 -2 -2
6 8 8 7 8 8 8 9 9 8 9 9 11 9 9 9 9 9 10 9 7 6 6 5 6 9 9 9 11 11 11 10 10 10 10 11 11 11 8 4 2 0 -1
6 8 8 8 8 10 11 10 11 11 11 10 10 11 10 9 9 8 8 9 9 9 8 7 7 8 10 10 10 10 10 11 10 9 9 9 9 10 10 8 6 4 2
6 8 9 9 10 10 11 12 11 11 12 12 12 11 11 9 9 9 8 8 8 11 10 11 11 9 9 9 10 11 10 9 9 9 8 8 8 7 8 9 9 7 4
7 9 11 10 11 11 11 11 13 12 12 11 11 11 10 9 9 9 9 9 9 10 12 11 12 12 12 11 11 12 11 10 10 10 9 9 9 9 8 7 7 7 6
7 9 11 11 11 10 10 10 11 12 12 13 11 11 10 10 9 9 9 9 10 11 11 12 12 13 14 13 11 11 13 12 11 11 11 11 10 10 10 9 8 7 6
8 9 10 11 10 10 11 12 13 11 13 13 13 13 11 10 10 9 9 10 10 11 12 11 12 11 13 13 13 13 13 11 12 11 11 11 11 10 10 10 9 8 7
8 8 9 10 11 11 11 11 12 12 14 13 14 13 13 12 11 10 10 10 11 11 12 12 12 12 12 14 13 13 12 12 11 14 12 12 11 11 11 10 10 9 8
9 9 9 10 11 11 11 11 10 13 13 15 14 14 14 14 13 12 11 11 11 11 12 12 12 12 12 13 13 14 13 12 12 11 14 14 12 12 11 11 11 10 10
10 10 11 11 11 12 11 11 11 13 13 15 14 15 16 15 14 14 13 12 12 12 12 12 12 12 12 12 13 13 13 13 13 13 13 13 14 13 12 11 11 11 10